EJU45PN EBBR-LFMN

Flight info

Callsign EJU45PN
Flight time 1h 34m
Altitude 37000
Route ROUSY DCT GTQ DCT POGOL DCT LASAT DCT MOROK DCT GILIR DCT GEVEA DCT KOGAS DCT MEDAM/N0470F290 DCT VEVAR
Aircraft A320/M-SDE3FGHIRWY/LB1

Departure

Time 2026-05-04 17:47
Airport Brussels Airport (EBBR)

Arrival

Time 2026-05-04 19:21
Airport Nice-Côte d'Azur Airport (LFMN)
Time Latitude Longitude Altitude Speed Heading
2026-05-04 17:23 50.90435 4.48672 121 ft 0 kts 155°
2026-05-04 17:23 50.90428 4.48677 117 ft 0 kts 155°
2026-05-04 17:37 50.90450 4.48661 119 ft 4 kts 155°
2026-05-04 17:37 50.90474 4.48643 117 ft 4 kts 152°
2026-05-04 17:38 50.90497 4.48620 117 ft 4 kts 133°
2026-05-04 17:38 50.90506 4.48593 117 ft 1 kts 66°
2026-05-04 17:38 50.90505 4.48592 117 ft 0 kts 65°
2026-05-04 17:40 50.90518 4.48636 119 ft 10 kts 65°
2026-05-04 17:40 50.90549 4.48742 117 ft 11 kts 65°
2026-05-04 17:40 50.90584 4.48864 117 ft 13 kts 65°
2026-05-04 17:41 50.90625 4.49006 118 ft 15 kts 65°
2026-05-04 17:41 50.90619 4.49150 120 ft 14 kts 146°
2026-05-04 17:41 50.90546 4.49208 120 ft 12 kts 155°
2026-05-04 17:41 50.90442 4.49283 121 ft 20 kts 155°
2026-05-04 17:42 50.90323 4.49392 124 ft 15 kts 149°
2026-05-04 17:42 50.90198 4.49367 128 ft 22 kts 195°
2026-05-04 17:42 50.90047 4.49310 131 ft 23 kts 194°
2026-05-04 17:42 50.89898 4.49250 138 ft 21 kts 194°
2026-05-04 17:43 50.89749 4.49192 146 ft 21 kts 193°
2026-05-04 17:43 50.89627 4.49119 153 ft 16 kts 216°
2026-05-04 17:43 50.89539 4.49055 157 ft 13 kts 193°
2026-05-04 17:43 50.89444 4.49022 160 ft 16 kts 193°
2026-05-04 17:44 50.89320 4.48958 165 ft 19 kts 220°
2026-05-04 17:44 50.89262 4.48764 164 ft 21 kts 244°
2026-05-04 17:44 50.89212 4.48541 164 ft 22 kts 253°
2026-05-04 17:44 50.89152 4.48282 164 ft 28 kts 250°
2026-05-04 17:45 50.89083 4.47991 164 ft 18 kts 251°
2026-05-04 17:45 50.89040 4.47901 166 ft 8 kts 211°
2026-05-04 17:45 50.88998 4.47908 171 ft 7 kts 162°
2026-05-04 17:45 50.88945 4.47976 177 ft 15 kts 111°
2026-05-04 17:46 50.88938 4.48186 179 ft 13 kts 70°
2026-05-04 17:46 50.88974 4.48338 178 ft 27 kts 69°
2026-05-04 17:46 50.89111 4.48919 177 ft 92 kts 70°
2026-05-04 17:46 50.89401 4.50177 179 ft 149 kts 69°
2026-05-04 17:47 50.89778 4.51794 694 ft 159 kts 67°
2026-05-04 17:47 50.90214 4.53397 1465 ft 160 kts 63°
2026-05-04 17:47 50.90717 4.54991 1869 ft 170 kts 62°
2026-05-04 17:47 50.91292 4.56762 2248 ft 192 kts 62°
2026-05-04 17:48 50.91941 4.58755 2576 ft 216 kts 62°
2026-05-04 17:48 50.92667 4.60993 3049 ft 241 kts 62°
2026-05-04 17:48 50.93463 4.63453 3705 ft 257 kts 64°
2026-05-04 17:48 50.94113 4.66129 4642 ft 263 kts 71°
2026-05-04 17:49 50.94673 4.68919 5601 ft 267 kts 73°
2026-05-04 17:49 50.95213 4.71768 6559 ft 271 kts 73°
2026-05-04 17:49 50.95484 4.74753 7449 ft 277 kts 92°
2026-05-04 17:49 50.95081 4.77721 8342 ft 282 kts 112°
2026-05-04 17:50 50.94026 4.80356 9254 ft 287 kts 133°
2026-05-04 17:50 50.92511 4.82465 10123 ft 293 kts 140°
2026-05-04 17:50 50.90876 4.84581 10515 ft 315 kts 142°
2026-05-04 17:50 50.88944 4.86487 10789 ft 340 kts 153°
2026-05-04 17:51 50.86665 4.87896 11053 ft 362 kts 164°
2026-05-04 17:51 50.84154 4.88593 11665 ft 371 kts 174°
2026-05-04 17:51 50.81568 4.88968 12420 ft 375 kts 174°
2026-05-04 17:51 50.78951 4.89371 13218 ft 380 kts 174°
2026-05-04 17:52 50.76306 4.89795 14033 ft 384 kts 173°
2026-05-04 17:52 50.73637 4.90226 14782 ft 387 kts 173°
2026-05-04 17:52 50.70944 4.90666 15528 ft 390 kts 172°
2026-05-04 17:52 50.68286 4.91576 16268 ft 392 kts 162°
2026-05-04 17:53 50.65773 4.93268 16952 ft 395 kts 151°
2026-05-04 17:53 50.63492 4.95714 17604 ft 398 kts 140°
2026-05-04 17:53 50.61484 4.98731 18240 ft 401 kts 135°
2026-05-04 17:53 50.59496 5.01838 18763 ft 404 kts 136°
2026-05-04 17:54 50.57514 5.04920 19283 ft 407 kts 136°
2026-05-04 17:54 50.55485 5.08062 19808 ft 410 kts 136°
2026-05-04 17:54 50.53445 5.11209 20327 ft 413 kts 137°
2026-05-04 17:54 50.51388 5.14380 20843 ft 415 kts 137°
2026-05-04 17:55 50.49321 5.17564 21323 ft 418 kts 137°
2026-05-04 17:55 50.47235 5.20771 21832 ft 421 kts 137°
2026-05-04 17:55 50.45131 5.24003 22316 ft 424 kts 138°
2026-05-04 17:55 50.43015 5.27251 22791 ft 427 kts 138°
2026-05-04 17:56 50.40878 5.30523 23258 ft 430 kts 138°
2026-05-04 17:56 50.38730 5.33805 23685 ft 433 kts 139°
2026-05-04 17:56 50.36567 5.37107 24077 ft 435 kts 139°
2026-05-04 17:56 50.34390 5.40426 24502 ft 437 kts 139°
2026-05-04 17:57 50.32205 5.43755 24919 ft 438 kts 139°
2026-05-04 17:57 50.30050 5.47036 25322 ft 440 kts 140°
2026-05-04 17:57 50.27820 5.50430 25733 ft 441 kts 140°
2026-05-04 17:57 50.25644 5.53736 26125 ft 442 kts 140°
2026-05-04 17:58 50.23439 5.57081 26508 ft 443 kts 140°
2026-05-04 17:58 50.21217 5.60446 26879 ft 444 kts 141°
2026-05-04 17:58 50.19000 5.63800 27260 ft 445 kts 141°
2026-05-04 17:58 50.16767 5.67173 27635 ft 446 kts 141°
2026-05-04 17:59 50.14529 5.70546 27992 ft 447 kts 141°
2026-05-04 17:59 50.12287 5.73913 28349 ft 448 kts 141°
2026-05-04 17:59 50.07546 5.80010 29354 ft 435 kts 153°
2026-05-04 18:00 50.04879 5.82122 29878 ft 426 kts 162°
2026-05-04 18:00 50.02103 5.83637 30369 ft 421 kts 166°
2026-05-04 18:00 49.99328 5.85062 30784 ft 419 kts 165°
2026-05-04 18:00 49.96561 5.86489 31143 ft 419 kts 165°
2026-05-04 18:01 49.94136 5.87741 31465 ft 418 kts 165°
2026-05-04 18:01 49.91376 5.89168 31831 ft 418 kts 165°
2026-05-04 18:01 49.88620 5.90590 32193 ft 417 kts 165°
2026-05-04 18:02 49.83115 5.93425 32915 ft 417 kts 166°
2026-05-04 18:02 49.81288 5.94363 33152 ft 416 kts 166°
2026-05-04 18:02 49.78546 5.95768 33511 ft 416 kts 166°
2026-05-04 18:02 49.75794 5.97174 33873 ft 415 kts 166°
2026-05-04 18:03 49.73050 5.98576 34192 ft 415 kts 166°
2026-05-04 18:03 49.70304 5.99977 34465 ft 416 kts 166°
2026-05-04 18:03 49.67553 6.01379 34724 ft 417 kts 166°
2026-05-04 18:03 49.64797 6.02783 34981 ft 418 kts 166°
2026-05-04 18:04 49.62034 6.04193 35243 ft 419 kts 166°
2026-05-04 18:04 49.59263 6.05605 35497 ft 420 kts 166°
2026-05-04 18:04 49.53702 6.08425 35966 ft 422 kts 165°
2026-05-04 18:05 49.50913 6.09835 36186 ft 423 kts 165°
2026-05-04 18:05 49.48178 6.11562 36396 ft 428 kts 156°
2026-05-04 18:05 49.45631 6.13995 36619 ft 434 kts 147°
2026-05-04 18:05 49.43276 6.16917 36816 ft 436 kts 145°
2026-05-04 18:06 49.38541 6.22802 36993 ft 439 kts 145°
2026-05-04 18:06 49.33778 6.28666 37003 ft 439 kts 145°
2026-05-04 18:07 49.29004 6.34540 37006 ft 440 kts 145°
2026-05-04 18:07 49.24227 6.40406 37006 ft 440 kts 145°
2026-05-04 18:08 49.19453 6.46269 36996 ft 440 kts 145°
2026-05-04 18:08 49.14672 6.52127 36989 ft 440 kts 146°
2026-05-04 18:09 49.05126 6.63747 36992 ft 441 kts 146°
2026-05-04 18:10 49.00039 6.68925 36992 ft 433 kts 160°
2026-05-04 18:10 48.94347 6.71266 36991 ft 425 kts 178°
2026-05-04 18:11 48.88465 6.71198 36994 ft 423 kts 184°
2026-05-04 18:11 48.82568 6.70969 37000 ft 424 kts 184°
2026-05-04 18:12 48.76670 6.70750 36998 ft 424 kts 184°
2026-05-04 18:12 48.70762 6.70528 36997 ft 425 kts 184°
2026-05-04 18:13 48.64854 6.70303 37001 ft 425 kts 184°
2026-05-04 18:14 48.56017 6.69967 37004 ft 425 kts 184°
2026-05-04 18:14 48.50096 6.69735 37010 ft 426 kts 184°
2026-05-04 18:15 48.38240 6.69254 37015 ft 426 kts 184°
2026-05-04 18:16 48.32315 6.69029 37018 ft 426 kts 184°
2026-05-04 18:16 48.26383 6.68818 37019 ft 426 kts 184°
2026-05-04 18:17 48.17481 6.68478 37021 ft 427 kts 184°
2026-05-04 18:18 48.08575 6.68134 37023 ft 427 kts 184°
2026-05-04 18:18 48.02676 6.67913 37020 ft 427 kts 184°
2026-05-04 18:19 47.93757 6.67579 37018 ft 427 kts 184°
2026-05-04 18:19 47.87813 6.67357 37012 ft 427 kts 184°
2026-05-04 18:20 47.81860 6.67128 37009 ft 427 kts 184°
2026-05-04 18:20 47.75916 6.66902 37009 ft 428 kts 184°
2026-05-04 18:21 47.69970 6.66672 37007 ft 428 kts 184°
2026-05-04 18:21 47.64017 6.66449 37006 ft 428 kts 184°
2026-05-04 18:22 47.58054 6.66236 37001 ft 428 kts 184°
2026-05-04 18:22 47.52096 6.66018 36998 ft 428 kts 184°
2026-05-04 18:23 47.46141 6.65794 36998 ft 428 kts 185°
2026-05-04 18:23 47.40345 6.64329 37003 ft 421 kts 202°
2026-05-04 18:24 47.35344 6.60115 37010 ft 417 kts 221°
2026-05-04 18:24 47.30929 6.54554 37014 ft 417 kts 221°
2026-05-04 18:25 47.26504 6.49028 37029 ft 417 kts 221°
2026-05-04 18:25 47.22080 6.43506 37029 ft 417 kts 221°
2026-05-04 18:26 47.17656 6.37983 37036 ft 417 kts 221°
2026-05-04 18:26 47.13236 6.32484 37036 ft 416 kts 221°
2026-05-04 18:27 47.08745 6.27112 37033 ft 417 kts 214°
2026-05-04 18:27 47.03421 6.23736 37029 ft 421 kts 195°
2026-05-04 18:28 46.97580 6.22751 37026 ft 424 kts 188°
2026-05-04 18:28 46.91698 6.21963 37024 ft 424 kts 188°
2026-05-04 18:29 46.85874 6.21170 37026 ft 424 kts 188°
2026-05-04 18:29 46.79969 6.20387 37030 ft 424 kts 188°
2026-05-04 18:30 46.71155 6.19231 37033 ft 424 kts 188°
2026-05-04 18:31 46.65282 6.18448 37041 ft 424 kts 188°
2026-05-04 18:31 46.59449 6.17683 37046 ft 424 kts 188°
2026-05-04 18:32 46.53576 6.16913 37048 ft 423 kts 188°
2026-05-04 18:32 46.47708 6.16138 37042 ft 423 kts 188°
2026-05-04 18:33 46.41838 6.15363 37039 ft 423 kts 188°
2026-05-04 18:33 46.35985 6.14603 37035 ft 423 kts 188°
2026-05-04 18:34 46.30124 6.13843 37034 ft 422 kts 188°
2026-05-04 18:34 46.24223 6.14255 37033 ft 431 kts 171°
2026-05-04 18:35 46.18569 6.17219 37031 ft 437 kts 163°
2026-05-04 18:35 46.12935 6.20512 37025 ft 437 kts 163°
2026-05-04 18:36 46.07292 6.23785 37023 ft 437 kts 163°
2026-05-04 18:36 46.01652 6.27050 37022 ft 437 kts 163°
2026-05-04 18:37 45.96013 6.30323 37017 ft 438 kts 163°
2026-05-04 18:37 45.90354 6.33593 37022 ft 438 kts 163°
2026-05-04 18:38 45.84701 6.36851 37018 ft 438 kts 163°
2026-05-04 18:38 45.79207 6.40730 37011 ft 447 kts 150°
2026-05-04 18:39 45.74139 6.45932 37022 ft 449 kts 150°
2026-05-04 18:39 45.69088 6.51068 37022 ft 448 kts 150°
2026-05-04 18:40 45.63981 6.56235 37041 ft 450 kts 150°
2026-05-04 18:40 45.58867 6.61411 37052 ft 450 kts 150°
2026-05-04 18:41 45.53753 6.66582 37057 ft 450 kts 150°
2026-05-04 18:41 45.48637 6.71752 37069 ft 450 kts 150°
2026-05-04 18:42 45.43513 6.76901 37076 ft 451 kts 150°
2026-05-04 18:42 45.38382 6.82052 37089 ft 451 kts 150°
2026-05-04 18:43 45.33251 6.87184 37096 ft 451 kts 150°
2026-05-04 18:43 45.28049 6.92020 37103 ft 445 kts 159°
2026-05-04 18:44 45.22257 6.94628 37102 ft 432 kts 176°
2026-05-04 18:44 45.16298 6.95587 37105 ft 431 kts 178°
2026-05-04 18:45 45.10325 6.96524 37103 ft 432 kts 178°
2026-05-04 18:45 45.04350 6.97468 37106 ft 432 kts 178°
2026-05-04 18:46 44.98376 6.98400 37116 ft 432 kts 178°
2026-05-04 18:46 44.92408 6.99320 37108 ft 431 kts 179°
2026-05-04 18:47 44.86439 7.00250 37118 ft 433 kts 178°
2026-05-04 18:47 44.80457 7.01179 37131 ft 433 kts 178°
2026-05-04 18:48 44.74528 7.02368 37113 ft 434 kts 175°
2026-05-04 18:48 44.68570 7.03883 37103 ft 433 kts 174°
2026-05-04 18:49 44.62613 7.05406 36684 ft 437 kts 175°
2026-05-04 18:49 44.59602 7.06138 35796 ft 441 kts 175°
2026-05-04 18:49 44.56573 7.06857 34939 ft 443 kts 175°
2026-05-04 18:49 44.53535 7.07572 34172 ft 443 kts 175°
2026-05-04 18:50 44.51523 7.08044 33598 ft 440 kts 175°
2026-05-04 18:50 44.47524 7.08986 32036 ft 431 kts 175°
2026-05-04 18:50 44.45575 7.09447 31413 ft 426 kts 175°
2026-05-04 18:50 44.42642 7.10138 30384 ft 430 kts 175°
2026-05-04 18:51 44.39668 7.10833 29140 ft 436 kts 174°
2026-05-04 18:51 44.36667 7.11534 27990 ft 440 kts 174°
2026-05-04 18:51 44.33634 7.12247 26780 ft 444 kts 174°
2026-05-04 18:51 44.30571 7.12968 25595 ft 448 kts 173°
2026-05-04 18:52 44.27485 7.13691 24442 ft 451 kts 173°
2026-05-04 18:52 44.24381 7.14420 23273 ft 453 kts 173°
2026-05-04 18:52 44.21289 7.15366 22001 ft 458 kts 165°
2026-05-04 18:52 44.18324 7.16974 21380 ft 452 kts 159°
2026-05-04 18:53 44.15462 7.18689 21116 ft 446 kts 159°
2026-05-04 18:53 44.12646 7.20346 20847 ft 444 kts 160°
2026-05-04 18:53 44.09805 7.21996 20613 ft 441 kts 160°
2026-05-04 18:53 44.06970 7.23634 20359 ft 440 kts 160°
2026-05-04 18:54 44.04150 7.25269 20104 ft 438 kts 160°
2026-05-04 18:54 44.01339 7.26905 19857 ft 437 kts 160°
2026-05-04 18:54 43.98545 7.28532 19600 ft 435 kts 160°
2026-05-04 18:54 43.95762 7.30152 19353 ft 434 kts 160°
2026-05-04 18:55 43.92975 7.31776 19105 ft 432 kts 160°
2026-05-04 18:55 43.87448 7.34995 18627 ft 429 kts 160°
2026-05-04 18:55 43.84717 7.36621 18397 ft 428 kts 156°
2026-05-04 18:56 43.82174 7.38685 18138 ft 430 kts 147°
2026-05-04 18:56 43.79795 7.41282 17871 ft 430 kts 143°
2026-05-04 18:56 43.77471 7.43895 17595 ft 428 kts 143°
2026-05-04 18:56 43.75161 7.46481 17324 ft 427 kts 143°
2026-05-04 18:57 43.72879 7.49024 17069 ft 425 kts 143°
2026-05-04 18:57 43.70613 7.51637 16807 ft 425 kts 139°
2026-05-04 18:57 43.68621 7.54733 16546 ft 427 kts 129°
2026-05-04 18:57 43.67095 7.58197 16296 ft 429 kts 118°
2026-05-04 18:58 43.65999 7.62038 16047 ft 430 kts 111°
2026-05-04 18:58 43.65021 7.65930 15795 ft 428 kts 111°
2026-05-04 18:58 43.64035 7.69803 15543 ft 427 kts 112°
2026-05-04 18:58 43.63043 7.73656 15299 ft 425 kts 112°
2026-05-04 18:59 43.62050 7.77492 15051 ft 424 kts 112°
2026-05-04 18:59 43.61059 7.81312 14821 ft 422 kts 112°
2026-05-04 18:59 43.60067 7.85121 14572 ft 421 kts 112°
2026-05-04 18:59 43.59078 7.88915 14332 ft 420 kts 112°
2026-05-04 19:00 43.58090 7.92696 14095 ft 418 kts 112°
2026-05-04 19:00 43.57108 7.96470 13856 ft 417 kts 112°
2026-05-04 19:00 43.55832 8.00010 13592 ft 410 kts 128°
2026-05-04 19:00 43.53864 8.02785 13323 ft 403 kts 145°
2026-05-04 19:01 43.51449 8.04662 13057 ft 397 kts 161°
2026-05-04 19:01 43.48816 8.05514 12802 ft 393 kts 176°
2026-05-04 19:01 43.46109 8.05294 12552 ft 389 kts 193°
2026-05-04 19:01 43.43589 8.04015 12290 ft 387 kts 209°
2026-05-04 19:02 43.41449 8.01786 12029 ft 386 kts 225°
2026-05-04 19:02 43.39859 7.98818 11788 ft 387 kts 241°
2026-05-04 19:02 43.38934 7.95353 11537 ft 388 kts 257°
2026-05-04 19:02 43.38765 7.91664 11364 ft 386 kts 273°
2026-05-04 19:03 43.39348 7.88147 11236 ft 371 kts 289°
2026-05-04 19:03 43.40493 7.85067 11114 ft 355 kts 297°
2026-05-04 19:03 43.41692 7.82172 10992 ft 339 kts 297°
2026-05-04 19:03 43.42833 7.79413 10867 ft 325 kts 296°
2026-05-04 19:04 43.43926 7.76755 10752 ft 313 kts 296°
2026-05-04 19:04 43.44980 7.74195 10598 ft 303 kts 296°
2026-05-04 19:04 43.46007 7.71692 10396 ft 298 kts 296°
2026-05-04 19:04 43.46792 7.69095 10242 ft 292 kts 279°
2026-05-04 19:05 43.46908 7.66353 10090 ft 285 kts 259°
2026-05-04 19:05 43.46383 7.63760 9915 ft 279 kts 241°
2026-05-04 19:05 43.45308 7.61574 9748 ft 275 kts 224°
2026-05-04 19:05 43.43879 7.59906 9578 ft 273 kts 217°
2026-05-04 19:06 43.42440 7.58198 9420 ft 273 kts 220°
2026-05-04 19:06 43.41078 7.56378 9262 ft 274 kts 223°
2026-05-04 19:06 43.39767 7.54427 9100 ft 275 kts 226°
2026-05-04 19:06 43.38545 7.52405 8928 ft 275 kts 229°
2026-05-04 19:07 43.37400 7.50290 8773 ft 276 kts 232°
2026-05-04 19:07 43.36340 7.48094 8597 ft 276 kts 235°
2026-05-04 19:07 43.35377 7.45852 8463 ft 276 kts 238°
2026-05-04 19:07 43.34483 7.43476 8297 ft 277 kts 242°
2026-05-04 19:08 43.33702 7.41085 8137 ft 278 kts 244°
2026-05-04 19:08 43.33010 7.38602 7980 ft 279 kts 248°
2026-05-04 19:08 43.32414 7.36056 7815 ft 279 kts 251°
2026-05-04 19:08 43.31921 7.33476 7658 ft 280 kts 254°
2026-05-04 19:09 43.31538 7.30861 7496 ft 280 kts 257°
2026-05-04 19:09 43.31260 7.28213 7337 ft 281 kts 260°
2026-05-04 19:09 43.31085 7.25538 7172 ft 281 kts 263°
2026-05-04 19:09 43.31009 7.22851 7011 ft 281 kts 266°
2026-05-04 19:10 43.31042 7.20163 6847 ft 282 kts 270°
2026-05-04 19:10 43.31188 7.17478 6685 ft 282 kts 273°
2026-05-04 19:10 43.31448 7.14805 6519 ft 283 kts 277°
2026-05-04 19:10 43.31817 7.12148 6357 ft 283 kts 280°
2026-05-04 19:11 43.32293 7.09519 6187 ft 284 kts 283°
2026-05-04 19:11 43.32875 7.06928 6019 ft 284 kts 287°
2026-05-04 19:11 43.33561 7.04382 5857 ft 285 kts 290°
2026-05-04 19:11 43.34349 7.01891 5707 ft 281 kts 294°
2026-05-04 19:12 43.35207 6.99547 5591 ft 268 kts 297°
2026-05-04 19:12 43.37042 6.95384 5328 ft 246 kts 304°
2026-05-04 19:12 43.38014 6.93511 5215 ft 236 kts 308°
2026-05-04 19:13 43.39018 6.91755 5112 ft 233 kts 311°
2026-05-04 19:13 43.40258 6.90372 5005 ft 228 kts 340°
2026-05-04 19:13 43.41767 6.89963 4902 ft 218 kts
2026-05-04 19:13 43.43184 6.90504 4797 ft 209 kts 34°
2026-05-04 19:14 43.44279 6.91767 4697 ft 205 kts 49°
2026-05-04 19:14 43.45276 6.93165 4598 ft 204 kts 48°
2026-05-04 19:14 43.46282 6.94553 4490 ft 204 kts 48°
2026-05-04 19:14 43.47288 6.95925 4376 ft 203 kts 48°
2026-05-04 19:15 43.48286 6.97285 4264 ft 202 kts 48°
2026-05-04 19:15 43.49280 6.98640 4158 ft 198 kts 48°
2026-05-04 19:15 43.50225 6.99926 4077 ft 189 kts 48°
2026-05-04 19:15 43.51147 7.01185 3890 ft 186 kts 48°
2026-05-04 19:16 43.52068 7.02442 3672 ft 185 kts 49°
2026-05-04 19:16 43.52966 7.03668 3439 ft 178 kts 49°
2026-05-04 19:16 43.53832 7.04850 3192 ft 172 kts 49°
2026-05-04 19:16 43.54650 7.05967 2964 ft 160 kts 48°
2026-05-04 19:17 43.55413 7.07009 2771 ft 147 kts 49°
2026-05-04 19:17 43.56100 7.07948 2570 ft 133 kts 49°
2026-05-04 19:17 43.56742 7.08827 2399 ft 128 kts 49°
2026-05-04 19:17 43.57373 7.09693 2229 ft 128 kts 49°
2026-05-04 19:18 43.58001 7.10553 2053 ft 127 kts 49°
2026-05-04 19:18 43.58622 7.11404 1884 ft 125 kts 49°
2026-05-04 19:18 43.59246 7.12260 1712 ft 127 kts 49°
2026-05-04 19:18 43.59873 7.13122 1538 ft 128 kts 49°
2026-05-04 19:19 43.60489 7.13992 1351 ft 127 kts 49°
2026-05-04 19:19 43.61101 7.14855 1148 ft 127 kts 47°
2026-05-04 19:19 43.61724 7.15700 998 ft 125 kts 46°
2026-05-04 19:19 43.62343 7.16524 846 ft 123 kts 48°
2026-05-04 19:20 43.62951 7.17357 684 ft 123 kts 47°
2026-05-04 19:20 43.63544 7.18179 503 ft 121 kts 49°
2026-05-04 19:20 43.64146 7.19002 353 ft 122 kts 47°
2026-05-04 19:20 43.64751 7.19810 202 ft 121 kts 49°
2026-05-04 19:21 43.65346 7.20622 37 ft 120 kts 48°
2026-05-04 19:21 43.65853 7.21329 20 ft 74 kts 44°
2026-05-04 19:21 43.66055 7.21607 17 ft 29 kts 46°
2026-05-04 19:21 43.66188 7.21765 20 ft 22 kts 15°
2026-05-04 19:22 43.66256 7.21699 17 ft 12 kts 311°
2026-05-04 19:22 43.66314 7.21616 17 ft 11 kts 315°
2026-05-04 19:22 43.66369 7.21544 19 ft 13 kts 321°
2026-05-04 19:22 43.66438 7.21548 19 ft 8 kts 353°
2026-05-04 19:23 43.66466 7.21505 19 ft 5 kts 318°
2026-05-04 19:23 43.66478 7.21489 20 ft 0 kts 317°
2026-05-04 19:23 43.66479 7.21489 20 ft 0 kts 317°